This is the latest recevied weather packets stored in our database for station/object DL9GRB-13. If no packets are shown the sender has not sent any weather packets the latest 1 day(s).
| Time | Temp. | Humidity | Pressure | Rain* | Wind** | Luminosity | Snow |
|---|---|---|---|---|---|---|---|
| 1778003708 | 12.78° C | 63% | 1009.1 hPa | 0 mm | 3.13 m/s, 48° | 32 W/m² | - |
| 1778003528 | 13.33° C | 62% | 1009.1 hPa | 0 mm | 2.68 m/s, 360° | 37 W/m² | - |
| 1778003348 | 13.33° C | 62% | 1008.9 hPa | 0 mm | 2.24 m/s, 85° | 44 W/m² | - |
| 1778003168 | 13.33° C | 62% | 1009 hPa | 0 mm | 6.71 m/s, 10° | 46 W/m² | - |
| 1778002988 | 13.33° C | 61% | 1009 hPa | 0 mm | 2.68 m/s, 10° | 47 W/m² | - |
| 1778002808 | 13.33° C | 61% | 1009.1 hPa | 0 mm | 1.79 m/s, 88° | 47 W/m² | - |
| 1778002628 | 13.89° C | 60% | 1009 hPa | 0 mm | 4.92 m/s, 15° | 54 W/m² | - |
| 1778002448 | 13.89° C | 59% | 1009 hPa | 0 mm | 2.68 m/s, 60° | 56 W/m² | - |
| 1778002268 | 13.89° C | 59% | 1009.2 hPa | 0 mm | 2.24 m/s, 8° | 60 W/m² | - |
| 1778002092 | 13.89° C | 59% | 1009.1 hPa | 0 mm | 3.58 m/s, 118° | 63 W/m² | - |
| 1778001908 | 13.89° C | 58% | 1009.2 hPa | 0 mm | 4.47 m/s, 43° | 65 W/m² | - |
| 1778001728 | 13.89° C | 59% | 1009 hPa | 0 mm | 4.02 m/s, 347° | 66 W/m² | - |
| 1778001548 | 13.89° C | 60% | 1009.2 hPa | 0 mm | 4.47 m/s, 78° | 54 W/m² | - |
| 1778001368 | 13.89° C | 61% | 1009.2 hPa | 0 mm | 3.58 m/s, 39° | 58 W/m² | - |
| 1778001188 | 13.89° C | 60% | 1009.2 hPa | 0 mm | 4.92 m/s, 63° | 69 W/m² | - |
| 1778001008 | 13.89° C | 60% | 1009.2 hPa | 0 mm | 2.68 m/s, 40° | 72 W/m² | - |
| 1778000828 | 13.89° C | 59% | 1009.3 hPa | 0 mm | 3.58 m/s, 76° | 74 W/m² | - |
| 1778000648 | 13.89° C | 58% | 1009.1 hPa | 0 mm | 8.05 m/s, 80° | 77 W/m² | - |
| 1778000468 | 13.89° C | 57% | 1009.2 hPa | 0 mm | 6.71 m/s, 4° | 83 W/m² | - |
| 1778000288 | 13.89° C | 58% | 1009.2 hPa | 0 mm | 8.49 m/s, 57° | 57 W/m² | - |
| 1778000108 | 14.44° C | 58% | 1009.1 hPa | 0 mm | 7.15 m/s, 60° | 65 W/m² | - |
| 1777999928 | 13.89° C | 57% | 1009.1 hPa | 0 mm | 3.13 m/s, 326° | 66 W/m² | - |
| 1777999748 | 13.89° C | 58% | 1009.3 hPa | 0 mm | 2.68 m/s, 41° | 61 W/m² | - |
| 1777999568 | 13.89° C | 57% | 1009.2 hPa | 0 mm | 4.92 m/s, 118° | 61 W/m² | - |
| 1777999388 | 14.44° C | 57% | 1009.3 hPa | 0 mm | 5.36 m/s, 119° | 63 W/m² | - |
* Rain latest hour (hover to see other rain measurements)
** Current wind speed in m/s (hover to see current wind gust speed)